EN

Hourly Weather Abhar

Today, 27 November, Friday

Time Temperature Precipitation Wind Pressure Humidity
00:00 +3°C° 0.1 mm 3 mps 618 mmHg 91%
01:00 +4°C° 0.1 mm 2 mps 618 mmHg 92%
02:00 +4°C° 0.1 mm 2 mps 618 mmHg 92%
03:00 +4°C° 0.1 mm 1 mps 619 mmHg 93%
04:00 +4°C° 0.1 mm 1 mps 619 mmHg 94%
05:00 +4°C° 0.1 mm 1 mps 620 mmHg 95%
06:00 +3°C° 0.1 mm 1 mps 620 mmHg 95%
07:00 +2°C° 1 mm 2 mps 620 mmHg 95%
08:00 +2°C° 1 mm 2 mps 621 mmHg 95%
09:00 +1°C° 1 mm 2 mps 621 mmHg 95%
10:00 0°C° 1.2 mm 3 mps 621 mmHg 96%
11:00 -1°C° 1.2 mm 3 mps 621 mmHg 96%
12:00 -1°C° 1.2 mm 3 mps 622 mmHg 97%
13:00 -1°C° 0.4 mm 3 mps 622 mmHg 95%
14:00 -1°C° 0.4 mm 2 mps 622 mmHg 93%
15:00 -1°C° 0.4 mm 2 mps 623 mmHg 91%
16:00 -1°C° 0 mm 2 mps 623 mmHg 91%
17:00 -2°C° 0 mm 2 mps 623 mmHg 91%
18:00 -2°C° 0 mm 2 mps 623 mmHg 92%
19:00 -2°C° 0 mm 2 mps 624 mmHg 92%
20:00 -3°C° 0 mm 2 mps 624 mmHg 92%
21:00 -3°C° 0 mm 2 mps 624 mmHg 93%
22:00 -3°C° 0 mm 2 mps 624 mmHg 91%
23:00 -1°C° 0 mm 1 mps 624 mmHg 90%

Tomorrow, 28 November, Saturday

Time Temperature Precipitation Wind Pressure Humidity
00:00 -1°C° 0 mm 1 mps 624 mmHg 88%
01:00 -1°C° 0 mm 1 mps 624 mmHg 85%
02:00 -1°C° 0 mm 1 mps 624 mmHg 81%
03:00 0°C° 0 mm 1 mps 624 mmHg 77%
04:00 0°C° 0 mm 1 mps 624 mmHg 77%
05:00 +1°C° 0 mm 1 mps 625 mmHg 77%
06:00 +1°C° 0 mm 1 mps 625 mmHg 77%
07:00 +2°C° 0 mm 1 mps 625 mmHg 79%
08:00 +2°C° 0 mm 1 mps 625 mmHg 81%
09:00 +1°C° 0 mm 2 mps 625 mmHg 83%
10:00 +1°C° 0 mm 2 mps 624 mmHg 86%
11:00 +1°C° 0 mm 2 mps 624 mmHg 90%
12:00 +1°C° 0 mm 2 mps 623 mmHg 93%
13:00 +1°C° 0.1 mm 2 mps 623 mmHg 95%
14:00 +1°C° 0.1 mm 2 mps 623 mmHg 96%
15:00 +3°C° 0.1 mm 1 mps 623 mmHg 97%
16:00 +3°C° 1 mm 1 mps 623 mmHg 98%
17:00 +3°C° 1 mm 1 mps 623 mmHg 98%
18:00 +3°C° 1 mm 1 mps 623 mmHg 99%
19:00 +2°C° 0.3 mm 2 mps 623 mmHg 99%
20:00 +2°C° 0.3 mm 2 mps 622 mmHg 99%
21:00 +2°C° 0.3 mm 2 mps 622 mmHg 99%
22:00 +2°C° 0.1 mm 2 mps 622 mmHg 99%
23:00 +2°C° 0.1 mm 2 mps 622 mmHg 99%

Day after tomorrow, 29 November, Sunday

Time Temperature Precipitation Wind Pressure Humidity
00:00 +2°C° 0.1 mm 2 mps 622 mmHg 99%
01:00 +2°C° 0.2 mm 2 mps 621 mmHg 99%
02:00 +2°C° 0.2 mm 2 mps 621 mmHg 99%
03:00 +2°C° 0.2 mm 2 mps 621 mmHg 99%
04:00 +2°C° 1 mm 2 mps 621 mmHg 99%
05:00 +2°C° 1 mm 2 mps 621 mmHg 99%
06:00 +2°C° 1 mm 2 mps 621 mmHg 99%
07:00 +2°C° 1.7 mm 2 mps 621 mmHg 99%
08:00 +2°C° 1.7 mm 2 mps 621 mmHg 99%
09:00 +2°C° 1.7 mm 2 mps 621 mmHg 99%
10:00 +2°C° 1.6 mm 2 mps 620 mmHg 99%
11:00 +2°C° 1.6 mm 2 mps 620 mmHg 99%
12:00 +2°C° 1.6 mm 2 mps 620 mmHg 99%
13:00 +2°C° 1.5 mm 2 mps 619 mmHg 99%
14:00 +1°C° 1.5 mm 2 mps 619 mmHg 99%
15:00 +1°C° 1.5 mm 2 mps 619 mmHg 98%
16:00 +1°C° 0.6 mm 2 mps 619 mmHg 98%
17:00 +1°C° 0.6 mm 2 mps 619 mmHg 98%
18:00 +1°C° 0.6 mm 2 mps 619 mmHg 98%
19:00 +2°C° 0.4 mm 2 mps 619 mmHg 98%
20:00 +3°C° 0.4 mm 1 mps 619 mmHg 98%
21:00 +3°C° 0.4 mm 1 mps 619 mmHg 98%
22:00 +3°C° 0.2 mm 1 mps 619 mmHg 98%
23:00 +3°C° 0.2 mm 1 mps 619 mmHg 98%

30 November, Monday

Time Temperature Precipitation Wind Pressure Humidity
00:00 +3°C° 0.2 mm 1 mps 619 mmHg 98%
01:00 +3°C° 0.2 mm 1 mps 619 mmHg 98%
02:00 +3°C° 0.2 mm 1 mps 619 mmHg 98%
03:00 +3°C° 0.2 mm 1 mps 619 mmHg 98%
04:00 +3°C° 0.3 mm 1 mps 619 mmHg 98%
05:00 +3°C° 0.3 mm 1 mps 620 mmHg 98%
06:00 +3°C° 0.3 mm 1 mps 620 mmHg 98%
07:00 +3°C° 0.1 mm 1 mps 620 mmHg 97%
08:00 +3°C° 0.1 mm 1 mps 620 mmHg 97%
09:00 +3°C° 0.1 mm 1 mps 621 mmHg 97%
10:00 +4°C° 0.1 mm 1 mps 620 mmHg 96%
11:00 +4°C° 0.1 mm 1 mps 620 mmHg 95%
12:00 +4°C° 0.1 mm 1 mps 620 mmHg 94%
13:00 +4°C° 0 mm 1 mps 620 mmHg 93%
14:00 +5°C° 0 mm 1 mps 620 mmHg 92%
15:00 +5°C° 0 mm 1 mps 620 mmHg 91%
16:00 +4°C° 0 mm 1 mps 620 mmHg 91%
17:00 +4°C° 0 mm 1 mps 620 mmHg 92%
18:00 +4°C° 0 mm 1 mps 620 mmHg 93%
19:00 +3°C° 0 mm 1 mps 620 mmHg 93%
20:00 +3°C° 0 mm 1 mps 620 mmHg 94%
21:00 +2°C° 0 mm 1 mps 620 mmHg 95%
22:00 +2°C° 0 mm 1 mps 620 mmHg 95%
23:00 +2°C° 0 mm 1 mps 620 mmHg 95%

1 December, Tuesday

Time Temperature Precipitation Wind Pressure Humidity
00:00 +2°C° 0 mm 1 mps 620 mmHg 96%
01:00 +2°C° 0 mm 1 mps 620 mmHg 95%
02:00 +2°C° 0 mm 1 mps 620 mmHg 95%
03:00 +1°C° 0 mm 1 mps 620 mmHg 95%
04:00 +1°C° 0 mm 1 mps 620 mmHg 94%
05:00 +1°C° 0 mm 1 mps 620 mmHg 93%
06:00 0°C° 0 mm 0 mps 620 mmHg 92%
07:00 +1°C° 0 mm 0 mps 620 mmHg 91%
08:00 +3°C° 0 mm 1 mps 621 mmHg 89%
09:00 +4°C° 0 mm 1 mps 621 mmHg 87%
10:00 +5°C° 0 mm 1 mps 621 mmHg 85%
11:00 +5°C° 0 mm 1 mps 621 mmHg 82%
12:00 +5°C° 0 mm 2 mps 621 mmHg 80%
13:00 +5°C° 0 mm 2 mps 621 mmHg 79%
14:00 +5°C° 0 mm 2 mps 621 mmHg 78%
15:00 +5°C° 0 mm 2 mps 620 mmHg 77%
16:00 +4°C° 0 mm 2 mps 620 mmHg 81%
17:00 +4°C° 0 mm 2 mps 620 mmHg 85%
18:00 +4°C° 0 mm 1 mps 620 mmHg 89%
19:00 +4°C° 0 mm 1 mps 620 mmHg 89%
20:00 +3°C° 0 mm 1 mps 620 mmHg 90%
21:00 +3°C° 0 mm 1 mps 621 mmHg 90%
22:00 +3°C° 0 mm 1 mps 620 mmHg 92%
23:00 +3°C° 0 mm 1 mps 620 mmHg 93%

2 December, Wednesday

Time Temperature Precipitation Wind Pressure Humidity
00:00 +2°C° 0 mm 1 mps 620 mmHg 94%
01:00 +2°C° 0 mm 1 mps 620 mmHg 94%
02:00 +3°C° 0 mm 1 mps 620 mmHg 95%
03:00 +3°C° 0 mm 1 mps 620 mmHg 96%
04:00 +3°C° 0 mm 1 mps 620 mmHg 96%
05:00 +3°C° 0 mm 1 mps 620 mmHg 96%
06:00 +3°C° 0 mm 1 mps 620 mmHg 96%
07:00 +3°C° 0 mm 1 mps 620 mmHg 94%
08:00 +4°C° 0 mm 1 mps 620 mmHg 92%
09:00 +4°C° 0 mm 1 mps 621 mmHg 91%
10:00 +4°C° 0 mm 1 mps 620 mmHg 90%
11:00 +5°C° 0 mm 1 mps 620 mmHg 88%
12:00 +5°C° 0 mm 1 mps 620 mmHg 87%
13:00 +5°C° 0.1 mm 1 mps 620 mmHg 88%
14:00 +5°C° 0.1 mm 1 mps 620 mmHg 90%
15:00 +5°C° 0.1 mm 1 mps 620 mmHg 91%
16:00 +5°C° 0.2 mm 1 mps 620 mmHg 93%
17:00 +4°C° 0.2 mm 1 mps 620 mmHg 95%
18:00 +3°C° 0.2 mm 0 mps 620 mmHg 97%
19:00 +3°C° 0.1 mm 0 mps 620 mmHg 97%
20:00 +3°C° 0.1 mm 0 mps 621 mmHg 96%
21:00 +3°C° 0.1 mm 0 mps 621 mmHg 96%
22:00 +4°C° 0 mm 1 mps 621 mmHg 96%
23:00 +4°C° 0 mm 1 mps 621 mmHg 96%
Show more